Flag for U.S.A. Weather past 2 weeks in Terre Haute, Indiana, U.S.A.

Now
41 °F

Clear.


Feels Like: 38 °F
Forecast: 40 / 69 °F
Wind: 5 mph from Southeast

Location: Terre Haute International Airport - Hulman Field

Current Time: Apr 1, 2015 at 7:41:44 AM

Latest Report: Apr 1, 2015 at 6:53 AM


Visibility: 10 mi

Pressure: 30.06 "Hg

Humidity: 74%

Dew point: 33 °F

Location of Terre HauteLocation

Historic Weather in Terre Haute — Graph

°F

Terre Haute temperature yesterday

Maximum temperature yesterday: 64 °F (at 2:53 PM)
Minimum temperature yesterday: 43 °F (at 11:53 PM)
Average temperature yesterday: 55 °F

Past Weeks' High & Low Weather Summary

 TemperatureHumidityPressure
High64 °F (Mar 21, 4:53 PM)97% (Mar 20, 7:53 AM)30.38 "Hg (Mar 20, 7:53 AM)
Low20 °F (Mar 28, 6:53 AM)26% (Mar 18, 4:53 PM)29.83 "Hg (Mar 31, 5:53 AM)
Average42 °F65%30.12 "Hg
* Reported Mar 17 5:53 AM — Apr 1 5:53 AM, Terre Haute, Weather by CustomWeather, © 2015

Note: Actual official high and low records may vary slightly from our data, if they occured in-between our weather recording intervals... More about our weather records

Advertising

Terre Haute weather history for previous 24 hours

 ConditionsComfort  
Time TempWeatherWind HumidityBarometerVisibility
5:53 AM
Wed, Apr 1
41 °FClear.5 mph76%30.03 "Hg10 mi
4:53 AM38 °FClear.5 mph79%30.02 "Hg10 mi
3:53 AM42 °FClear.3 mph76%30.03 "Hg10 mi
2:53 AM40 °FClear.3 mph80%30.03 "Hg10 mi
1:53 AM43 °FClear.3 mph74%30.02 "Hg10 mi
12:53 AM43 °FClear.No wind74%30.01 "Hg10 mi
11:53 PM
Tue, Mar 31
43 °FClear.No wind74%30.01 "Hg10 mi
10:53 PM45 °FClear.3 mph71%29.99 "Hg10 mi
9:53 PM48 °FClear.5 mph63%29.98 "Hg10 mi
8:53 PM54 °FSunny.6 mph55%29.97 "Hg10 mi
7:53 PM59 °FSunny.10 mph46%29.96 "Hg10 mi
6:53 PM63 °FSunny.8 mph38%29.94 "Hg10 mi
5:53 PM64 °FSunny.14 mph37%29.93 "Hg10 mi
4:53 PM64 °FSunny.12 mph38%29.92 "Hg10 mi
3:53 PM64 °FSunny.16 mph38%29.92 "Hg10 mi
2:53 PM64 °FSunny.15 mph40%29.91 "Hg10 mi
1:53 PM63 °FSunny.15 mph41%29.92 "Hg10 mi
12:53 PM61 °FSunny.18 mph44%29.91 "Hg10 mi
11:53 AM60 °FSunny.15 mph49%29.90 "Hg10 mi
10:53 AM58 °FSunny.13 mph50%29.88 "Hg10 mi
9:53 AM57 °FSunny.13 mph49%29.86 "Hg10 mi
8:53 AM50 °FSunny.9 mph66%29.85 "Hg10 mi
7:53 AM48 °FClear.13 mph68%29.84 "Hg10 mi
Weather by CustomWeather, © 2015

See weather overviewHow to use our weather pages